RH
13 13 15 15 16 17 18 18 19 19 19 19 19 17 17 19 19 18 19 22 23 25 26 26 24 23 22 20 18 16 16 15 15 13 11 11 11 11 10 11 12 40 47
12 12 13 15 16 17 18 18 18 21 22 24 24 27 23 22 26 27 30 35 36 36 39 39 35 34 31 26 22 20 17 18 18 17 15 16 16 21 19 16 29 53 35
20 18 15 17 18 17 18 19 18 21 22 24 25 20 20 25 31 32 38 38 35 38 39 41 39 34 33 29 27 23 23 23 20 17 19 20 23 22 26 23 27 32 51
28 25 25 26 29 28 24 24 23 21 22 23 24 24 25 33 39 43 39 29 23 25 29 36 32 31 30 28 26 22 20 19 19 21 20 23 26 31 47 28 29 55 61
31 34 32 32 34 33 33 32 33 27 24 24 25 25 24 26 27 33 45 53 41 35 27 31 33 32 31 32 33 32 28 24 20 20 20 27 37 45 40 62 47 68 72
35 38 42 37 37 38 35 47 39 32 29 33 39 37 30 26 27 30 30 43 54 50 44 39 44 42 40 28 30 36 33 26 22 20 23 28 43 41 90 96 82 69 68
31 29 29 35 44 44 51 48 34 34 31 36 39 40 44 40 38 44 38 36 34 40 47 42 46 42 48 36 36 31 28 26 26 25 27 35 44 80 100 95 83 66 84
38 36 37 47 37 54 55 42 31 32 45 49 50 42 36 35 36 38 43 46 43 44 44 45 51 50 44 45 37 33 34 49 38 35 37 42 47 58 100 100 79 94 93
33 33 32 39 42 39 39 32 35 34 51 56 70 58 48 43 36 35 62 74 61 61 60 55 52 54 50 46 48 34 38 39 48 39 44 35 52 41 94 100 83 96 82
43 50 56 43 39 40 40 41 39 63 73 86 78 63 48 40 43 43 40 65 77 82 78 85 61 60 46 57 62 52 41 58 62 47 41 25 29 46 95 93 89 100 86
47 47 60 58 47 46 44 48 56 75 75 83 66 45 40 48 50 48 48 43 45 86 94 75 80 76 50 57 51 46 42 100 94 81 71 42 52 61 100 60 76 93 100
51 62 65 73 58 55 53 51 47 64 95 90 53 52 50 52 60 64 60 53 52 55 49 46 48 50 68 53 59 69 56 96 89 71 100 87 93 96 100 81 88 100 100
52 51 55 59 59 66 66 60 59 99 100 81 64 57 61 70 68 58 63 75 64 67 69 52 45 42 43 46 64 53 56 100 98 72 100 80 86 99 100 97 99 100 100
42 51 50 58 62 67 68 91 100 88 80 85 77 60 74 58 60 69 70 89 84 77 76 70 56 53 61 68 65 56 47 98 100 73 82 90 78 100 95 100 77 87 100
48 46 53 57 54 54 68 79 86 76 85 99 96 90 92 86 71 66 79 75 81 99 90 84 81 63 74 67 66 84 60 80 100 98 96 77 62 100 100 100 58 100 100
44 50 60 65 63 52 50 55 94 100 100 98 88 100 100 100 95 74 78 86 87 100 92 63 62 64 66 67 66 84 65 90 100 100 84 60 61 100 98 84 74 100 100
41 45 57 58 60 67 66 64 74 76 90 92 98 90 100 100 100 100 100 100 86 65 67 59 50 52 74 71 78 69 80 100 95 100 71 59 66 100 89 76 100 100 100
46 43 51 71 79 79 72 61 57 66 81 93 100 100 100 100 100 100 100 100 97 70 69 60 52 49 67 65 69 73 74 91 100 99 61 68 52 94 98 56 76 100 100
51 48 46 53 62 78 75 72 76 84 88 95 97 100 100 100 100 100 100 100 100 69 68 59 57 58 75 66 67 75 64 95 97 93 67 53 36 60 100 78 78 100 100
50 51 54 53 54 58 62 59 72 80 89 91 100 100 100 97 95 99 100 93 82 54 57 63 51 65 86 88 74 77 78 80 98 94 65 46 30 29 81 100 100 100 100
41 43 46 49 45 47 50 58 59 68 74 66 72 84 82 96 100 88 85 71 68 51 62 55 65 66 88 83 65 76 82 74 81 81 45 38 28 32 73 79 100 100 100
39 47 50 45 51 55 67 86 86 84 78 83 100 100 100 98 84 67 54 47 33 40 41 37 67 58 71 83 70 82 92 94 72 72 49 33 27 100 86 100 100 100 100
45 44 41 47 66 79 75 70 65 68 82 90 85 66 66 64 56 59 46 30 28 25 25 29 47 52 55 68 70 96 92 73 67 66 54 31 100 100 88 100 100 100 100
48 41 39 45 61 65 57 46 44 52 58 46 40 36 37 25 29 36 30 26 19 16 26 31 46 43 51 59 72 100 97 78 68 54 38 59 100 100 92 100 100 100 100
50 46 42 46 57 43 48 48 46 47 41 30 23 19 23 23 16 14 13 14 13 20 27 36 57 47 51 68 74 92 91 92 59 48 38 74 100 100 100 100 100 100 99
54 51 49 48 44 38 39 38 38 32 20 14 12 12 12 19 13 12 11 11 16 24 38 66 100 65 59 68 61 88 87 82 67 60 54 100 100 100 100 100 100 100 100
Wind_Speed
66 68 69 73 75 74 74 73 72 70 69 71 69 69 70 70 69 68 65 65 64 63 64 65 66 67 67 69 69 70 70 70 68 70 70 67 66 64 63 61 56 48 46
49 54 58 57 58 60 62 63 61 59 59 57 57 56 59 58 57 59 57 58 58 59 58 59 60 61 64 66 68 67 65 65 65 66 64 62 59 56 54 52 44 35 42
33 36 39 39 41 43 44 46 46 42 40 39 42 46 44 43 45 46 47 50 52 51 51 52 54 58 61 61 62 62 62 60 60 58 55 52 49 47 46 44 43 40 36
36 35 33 34 34 35 34 35 36 37 37 37 36 37 37 39 42 45 46 46 48 49 49 50 51 50 53 53 53 57 57 56 55 53 52 47 44 43 42 43 37 36 29
40 40 39 39 39 39 37 37 37 36 35 35 37 40 42 43 45 45 47 48 46 46 48 48 48 49 50 49 47 46 49 51 50 52 49 42 41 39 41 38 32 26 25
45 44 44 43 41 39 39 40 41 39 37 35 36 38 41 40 40 44 46 49 47 48 46 50 54 53 50 52 48 45 47 46 47 48 45 40 37 36 36 37 30 25 26
47 47 49 45 43 43 42 41 40 40 41 37 37 39 38 40 42 41 42 46 45 44 46 52 54 59 58 57 51 48 47 48 44 44 43 39 33 33 35 32 29 25 18
49 49 48 47 46 45 45 44 43 42 42 44 43 44 42 44 44 46 46 47 51 54 50 50 52 51 55 58 57 48 43 41 39 40 38 37 34 31 33 30 29 20 17
49 50 49 50 51 50 47 46 46 45 47 47 49 47 48 48 47 43 49 52 55 58 55 50 49 50 49 49 50 44 43 39 37 36 35 34 36 35 33 34 27 22 18
50 51 52 51 51 51 51 53 51 50 49 51 51 52 52 50 47 45 39 47 53 56 54 53 54 54 51 49 48 42 40 36 34 31 33 34 31 32 30 27 21 22 24
54 52 53 55 57 55 55 53 52 51 51 52 56 57 55 52 51 50 47 40 47 53 51 56 53 52 52 49 44 43 36 35 32 29 26 25 27 29 27 24 25 25 26
57 56 54 56 56 56 56 57 55 55 53 57 61 63 60 55 53 51 52 48 44 49 53 51 54 52 50 45 44 41 33 35 33 29 27 23 23 28 28 24 24 24 24
58 57 56 55 55 56 57 57 57 56 59 63 64 66 61 57 56 51 52 55 53 50 53 53 51 47 48 45 43 40 32 34 34 29 28 21 25 27 28 24 30 24 23
58 59 58 57 56 58 55 56 58 61 65 65 68 65 63 60 59 55 52 56 57 57 55 53 54 53 49 47 40 39 33 33 37 34 34 32 28 31 30 31 32 29 29
61 60 58 59 58 57 57 60 61 63 64 67 69 68 66 67 65 62 57 54 57 59 62 60 55 56 50 48 38 35 35 35 38 37 34 32 32 35 34 34 33 35 26
62 60 60 61 61 60 60 60 62 67 69 70 70 69 69 72 70 66 61 55 55 57 65 63 60 54 55 48 41 35 35 36 37 39 36 31 34 38 40 35 38 34 29
65 64 63 64 63 62 62 64 66 68 69 70 71 72 73 73 75 70 65 65 65 62 61 64 60 53 56 51 43 38 38 35 37 41 37 30 35 38 39 37 22 32 35
66 64 65 64 66 66 67 69 69 68 70 71 72 74 77 77 77 73 71 73 70 70 68 65 62 55 52 53 47 39 39 36 39 41 36 31 29 39 48 43 43 37 39
71 69 66 66 68 70 71 72 73 74 75 76 76 76 79 80 79 80 81 79 76 76 73 68 62 57 52 52 48 41 40 40 38 42 39 38 35 44 48 46 56 49 43
71 73 73 70 69 70 72 74 76 77 78 79 81 82 82 84 82 82 83 86 84 79 75 71 58 56 49 52 49 43 40 40 40 40 39 41 38 45 52 53 52 53 53
69 72 74 73 70 71 71 73 76 78 80 81 82 87 85 86 87 87 91 90 84 80 78 71 60 57 50 57 48 41 39 38 39 39 35 37 40 48 57 56 51 52 56
75 74 75 75 76 75 76 79 81 82 84 86 89 92 93 95 94 92 89 88 83 82 74 63 60 56 50 56 46 39 37 37 37 39 35 37 38 57 63 56 44 51 55
78 77 77 78 78 80 82 84 85 86 90 93 97 96 100 98 93 91 92 86 79 67 54 50 52 53 53 52 47 39 36 35 35 38 36 34 45 58 65 64 47 62 65
81 80 79 79 82 84 87 86 84 88 92 94 96 93 98 93 86 89 85 74 65 45 39 49 52 52 52 50 46 41 38 36 37 33 30 39 52 60 65 61 57 60 73
84 82 81 84 86 86 87 88 89 90 92 93 93 91 93 90 74 62 59 55 51 38 42 40 34 44 48 47 47 43 42 38 37 35 32 46 52 62 67 73 70 61 63
83 84 84 87 88 87 86 87 88 88 89 87 82 74 67 59 55 51 52 49 44 44 45 42 33 44 49 47 45 44 42 41 43 42 34 45 57 63 69 71 76 74 74
Wind_Direction
259 261 263 264 265 266 267 269 271 273 273 273 275 277 278 278 280 280 280 280 282 280 280 280 281 281 280 280 280 280 281 282 283 283 285 287 289 291 291 292 295 299 295
261 261 261 263 265 267 269 270 271 272 273 275 277 278 278 278 279 280 280 278 278 279 278 277 278 278 277 277 278 278 279 281 281 282 283 285 289 291 292 293 296 289 296
265 266 265 264 264 266 268 268 269 269 270 271 273 275 277 278 277 278 278 277 276 275 276 275 274 276 279 281 281 281 281 280 279 281 284 285 287 288 292 293 296 300 295
267 268 269 268 274 277 278 276 280 282 283 285 283 283 279 278 281 281 282 282 282 280 277 274 277 276 278 282 284 284 283 281 282 282 282 286 286 288 288 291 295 294 294
266 268 269 270 276 278 281 282 287 289 290 287 287 288 287 281 277 278 278 279 279 280 278 273 272 274 277 281 280 285 286 284 282 281 282 283 285 284 286 286 292 283 285
267 267 268 271 273 275 277 283 285 283 286 286 289 288 284 282 282 280 279 277 276 277 278 268 271 276 276 278 279 286 287 286 281 280 279 280 279 282 272 277 287 283 286
272 273 273 272 273 274 281 279 281 282 282 279 288 292 291 287 281 281 284 281 280 283 280 275 273 270 275 279 284 281 288 284 280 278 276 274 274 270 268 273 276 288 258
272 273 273 275 272 274 273 278 280 281 285 284 289 293 297 296 289 285 280 277 279 287 282 281 275 276 276 279 281 281 289 285 277 274 272 272 264 262 262 266 269 259 247
276 276 275 273 275 274 275 274 282 281 285 283 287 292 293 299 294 296 278 276 276 281 282 280 277 276 278 282 285 285 285 287 278 271 270 272 263 258 259 262 270 243 244
278 277 277 276 275 276 276 276 278 284 284 286 288 289 291 293 293 297 291 279 281 272 279 280 278 274 276 280 281 284 285 288 279 271 272 268 268 259 253 255 221 246 251
281 282 278 274 273 274 274 277 278 280 284 282 286 291 292 293 294 297 295 292 286 279 272 276 278 278 273 277 283 283 283 283 279 279 277 269 256 258 246 254 255 247 256
280 280 279 276 275 275 275 276 277 280 282 282 288 292 292 291 294 296 298 293 291 281 278 279 275 275 278 275 277 278 274 272 271 269 270 255 229 244 230 244 240 248 254
277 278 278 278 279 279 279 277 277 278 280 283 288 289 291 290 292 296 295 290 291 284 282 283 278 275 279 275 275 268 263 262 259 257 259 252 226 232 227 225 237 240 243
279 278 277 276 277 277 278 278 278 278 281 284 288 291 290 292 294 294 295 287 284 288 283 278 283 281 280 273 270 265 255 253 260 255 254 248 224 224 220 214 222 223 235
275 275 275 275 276 276 276 277 277 279 283 284 288 290 289 290 293 294 293 290 281 279 283 284 282 279 274 273 260 260 251 247 255 254 247 242 233 221 211 210 227 226 228
279 278 276 275 275 276 278 281 280 281 282 283 285 286 287 288 290 291 291 286 283 280 286 287 283 275 277 269 255 252 249 251 252 248 248 246 238 211 209 211 224 230 239
280 281 279 277 278 279 280 279 279 279 280 281 283 285 285 285 287 287 285 286 286 290 284 286 286 273 269 263 251 244 241 245 248 245 244 242 238 212 209 206 218 222 240
281 279 278 278 278 279 280 281 280 281 281 282 282 282 283 283 285 285 283 284 285 291 286 284 280 272 265 256 249 242 235 243 244 245 246 232 236 218 208 210 215 231 231
279 278 278 278 278 278 279 281 281 281 281 281 281 280 280 281 282 282 284 284 286 287 285 285 276 266 263 253 244 238 231 239 247 248 248 245 232 220 206 212 212 206 233
277 277 278 277 277 277 279 280 280 280 280 279 279 278 279 279 280 282 281 281 282 282 280 278 268 260 256 243 237 233 233 237 243 249 249 250 240 228 208 208 205 211 216
276 277 278 279 278 278 278 276 277 279 280 280 280 280 280 280 280 280 279 280 279 280 278 275 263 256 248 238 234 231 231 237 240 242 251 256 251 213 202 201 210 217 220
277 276 277 279 279 280 281 281 282 283 281 281 280 278 279 279 279 279 278 278 280 278 276 266 256 247 237 233 227 227 230 236 243 242 252 264 227 198 197 201 218 225 225
274 275 277 278 278 278 278 278 279 280 280 280 280 278 277 276 277 277 277 280 276 272 265 250 243 239 232 226 220 224 229 234 241 244 249 246 206 197 197 206 222 230 233
275 277 277 276 276 277 279 281 282 281 281 280 278 276 276 277 274 276 274 270 265 256 238 234 233 233 227 217 213 218 224 234 241 245 241 221 204 202 199 197 211 225 234
275 277 278 277 277 278 279 280 281 281 280 278 278 277 275 275 272 264 259 252 250 236 223 222 229 232 223 213 215 214 221 229 236 245 247 215 209 208 206 207 215 224 229
274 276 277 277 278 280 280 281 283 282 281 279 276 273 272 272 269 262 254 245 238 217 205 196 198 220 222 217 218 216 223 228 237 250 226 211 214 212 213 213 219 229 234